Back to Top

Language: 

My Weather Underground Personal Weather Station Historical Data with Graphs...

Delerius Weather Station Historical Data
Daily Summary for June 25, 2017 Units:  English    Metric   Both
« Previous Day
Next Day »
Daily Weekly Monthly Yearly Custom
  High: Low: Average:
Temperature: 67.1 °F 52.5 °F 59.8 °F
Dew Point: 56.1 °F 45.4 °F 50.7 °F
Humidity: 86 % 52 % 73 %
Wind Speed: 14.0 mph 3.0 mph 9 mph
Wind Gust: 25.0 mph - -
Wind:- - West
Pressure: 29.91 in 29.78 in -
Precipitation: 0.00 in    
Historical Graphs
 
 
Tabular Data for June 25, 2017
Time Temperature Dew Point Pressure Wind Wind Speed Wind Gust Humidity Rainfall Rate (Hourly) solar Conditions
00:03 58.5 °F 52.6 °F 29.79 in WSW 9.0 mph 15.0 mph 81 % 0.00 in 0 W/m2
00:08 58.5 °F 52.6 °F 29.80 in WSW 8.0 mph 15.0 mph 81 % 0.00 in 0 W/m2
00:13 58.5 °F 52.6 °F 29.80 in West 9.0 mph 15.0 mph 81 % 0.00 in 0 W/m2
00:18 58.5 °F 52.6 °F 29.79 in West 9.0 mph 15.0 mph 81 % 0.00 in 0 W/m2
00:23 58.5 °F 52.6 °F 29.79 in West 7.0 mph 13.0 mph 81 % 0.00 in 0 W/m2
00:28 58.5 °F 53.0 °F 29.79 in West 8.0 mph 14.0 mph 82 % 0.00 in 0 W/m2
00:33 58.5 °F 53.0 °F 29.79 in West 8.0 mph 14.0 mph 82 % 0.00 in 0 W/m2
00:38 58.5 °F 53.0 °F 29.79 in WSW 8.0 mph 13.0 mph 82 % 0.00 in 0 W/m2
00:43 58.5 °F 53.0 °F 29.79 in West 8.0 mph 13.0 mph 82 % 0.00 in 0 W/m2
00:48 58.6 °F 53.2 °F 29.79 in West 8.0 mph 13.0 mph 82 % 0.00 in 0 W/m2
00:53 58.6 °F 52.8 °F 29.79 in West 8.0 mph 13.0 mph 81 % 0.00 in 0 W/m2
00:57 58.6 °F 52.8 °F 29.79 in West 7.0 mph 13.0 mph 81 % 0.00 in 0 W/m2
01:02 58.6 °F 52.8 °F 29.78 in WSW 7.0 mph 13.0 mph 81 % 0.00 in 0 W/m2
01:07 58.6 °F 52.8 °F 29.78 in WSW 8.0 mph 13.0 mph 81 % 0.00 in 0 W/m2
01:12 58.6 °F 52.5 °F 29.78 in West 7.0 mph 12.0 mph 80 % 0.00 in 0 W/m2
01:17 58.6 °F 52.5 °F 29.78 in West 6.0 mph 11.0 mph 80 % 0.00 in 0 W/m2
01:22 58.6 °F 52.8 °F 29.78 in West 7.0 mph 11.0 mph 81 % 0.00 in 0 W/m2
01:27 58.6 °F 52.8 °F 29.78 in West 7.0 mph 12.0 mph 81 % 0.00 in 0 W/m2
01:32 58.6 °F 52.8 °F 29.78 in West 7.0 mph 12.0 mph 81 % 0.00 in 0 W/m2
01:37 58.6 °F 52.8 °F 29.78 in West 8.0 mph 13.0 mph 81 % 0.00 in 0 W/m2
01:42 58.6 °F 52.8 °F 29.78 in West 8.0 mph 13.0 mph 81 % 0.00 in 0 W/m2
01:47 58.6 °F 52.1 °F 29.78 in West 9.0 mph 22.0 mph 79 % 0.00 in 0 W/m2
01:52 58.6 °F 52.1 °F 29.79 in West 10.0 mph 22.0 mph 79 % 0.00 in 0 W/m2
01:57 58.6 °F 51.8 °F 29.79 in West 8.0 mph 16.0 mph 78 % 0.00 in 0 W/m2
02:02 58.6 °F 51.1 °F 29.79 in West 9.0 mph 19.0 mph 76 % 0.00 in 0 W/m2
02:07 58.6 °F 51.1 °F 29.78 in West 10.0 mph 19.0 mph 76 % 0.00 in 0 W/m2
02:12 58.6 °F 51.1 °F 29.78 in West 9.0 mph 16.0 mph 76 % 0.00 in 0 W/m2
02:17 58.5 °F 50.6 °F 29.78 in West 10.0 mph 21.0 mph 75 % 0.00 in 0 W/m2
02:22 58.5 °F 50.6 °F 29.78 in West 10.0 mph 21.0 mph 75 % 0.00 in 0 W/m2
02:27 58.5 °F 50.6 °F 29.78 in West 8.0 mph 16.0 mph 75 % 0.00 in 0 W/m2
02:32 58.5 °F 50.6 °F 29.78 in West 7.0 mph 13.0 mph 75 % 0.00 in 0 W/m2
02:37 58.3 °F 50.7 °F 29.78 in West 7.0 mph 13.0 mph 76 % 0.00 in 0 W/m2
02:42 58.3 °F 50.7 °F 29.78 in West 7.0 mph 13.0 mph 76 % 0.00 in 0 W/m2
02:43 58.3 °F 50.7 °F 29.78 in West 7.0 mph 13.0 mph 76 % 0.00 in 0 W/m2
02:48 58.1 °F 50.6 °F 29.78 in West 6.0 mph 12.0 mph 76 % 0.00 in 0 W/m2
02:53 57.9 °F 50.4 °F 29.78 in West 6.0 mph 11.0 mph 76 % 0.00 in 0 W/m2
02:58 57.9 °F 50.4 °F 29.79 in West 7.0 mph 11.0 mph 76 % 0.00 in 0 W/m2
03:03 57.9 °F 50.8 °F 29.79 in WSW 7.0 mph 11.0 mph 77 % 0.00 in 0 W/m2
03:08 57.7 °F 50.6 °F 29.78 in WSW 6.0 mph 11.0 mph 77 % 0.00 in 0 W/m2
03:13 57.7 °F 50.6 °F 29.78 in West 6.0 mph 10.0 mph 77 % 0.00 in 0 W/m2
03:18 57.6 °F 50.4 °F 29.78 in WSW 7.0 mph 11.0 mph 77 % 0.00 in 0 W/m2
03:23 57.4 °F 50.2 °F 29.78 in West 8.0 mph 12.0 mph 77 % 0.00 in 0 W/m2
03:28 57.4 °F 50.2 °F 29.78 in WSW 8.0 mph 15.0 mph 77 % 0.00 in 0 W/m2
03:33 57.2 °F 50.4 °F 29.78 in WSW 7.0 mph 15.0 mph 78 % 0.00 in 0 W/m2
03:38 57.2 °F 50.7 °F 29.78 in West 6.0 mph 12.0 mph 79 % 0.00 in 0 W/m2
03:43 57.0 °F 50.6 °F 29.78 in West 7.0 mph 16.0 mph 79 % 0.00 in 0 W/m2
03:48 56.8 °F 50.4 °F 29.78 in West 9.0 mph 16.0 mph 79 % 0.00 in 0 W/m2
03:53 56.8 °F 50.7 °F 29.78 in West 8.0 mph 15.0 mph 80 % 0.00 in 0 W/m2
03:58 56.8 °F 50.7 °F 29.78 in West 8.0 mph 15.0 mph 80 % 0.00 in 0 W/m2
04:03 56.8 °F 51.1 °F 29.78 in West 9.0 mph 15.0 mph 81 % 0.00 in 0 W/m2
04:08 56.8 °F 51.1 °F 29.78 in West 8.0 mph 15.0 mph 81 % 0.00 in 0 W/m2
04:13 56.8 °F 51.1 °F 29.78 in West 8.0 mph 13.0 mph 81 % 0.00 in 0 W/m2
04:18 56.7 °F 51.2 °F 29.78 in West 8.0 mph 14.0 mph 82 % 0.00 in 0 W/m2
04:23 56.7 °F 51.6 °F 29.78 in West 9.0 mph 19.0 mph 83 % 0.00 in 0 W/m2
04:28 56.5 °F 51.4 °F 29.78 in West 9.0 mph 19.0 mph 83 % 0.00 in 0 W/m2
04:33 56.3 °F 51.5 °F 29.78 in West 8.0 mph 15.0 mph 84 % 0.00 in 0 W/m2
04:38 56.3 °F 51.5 °F 29.78 in West 9.0 mph 15.0 mph 84 % 0.00 in 0 W/m2
04:43 56.1 °F 51.4 °F 29.79 in West 10.0 mph 16.0 mph 84 % 0.00 in 0 W/m2
04:48 55.9 °F 51.5 °F 29.79 in West 9.0 mph 16.0 mph 85 % 0.00 in 5 W/m2
04:54 55.8 °F 51.6 °F 29.78 in West 8.0 mph 15.0 mph 86 % 0.00 in 7 W/m2
04:59 55.6 °F 51.5 °F 29.78 in West 8.0 mph 14.0 mph 86 % 0.00 in 9 W/m2
05:04 55.6 °F 51.5 °F 29.78 in West 8.0 mph 14.0 mph 86 % 0.00 in 11 W/m2
05:09 55.4 °F 51.3 °F 29.79 in West 7.0 mph 15.0 mph 86 % 0.00 in 14 W/m2
05:14 55.2 °F 51.1 °F 29.79 in West 8.0 mph 15.0 mph 86 % 0.00 in 18 W/m2
05:19 55.2 °F 51.1 °F 29.79 in West 8.0 mph 14.0 mph 86 % 0.00 in 19 W/m2
05:24 55.2 °F 51.1 °F 29.79 in West 7.0 mph 11.0 mph 86 % 0.00 in 23 W/m2
05:29 55.2 °F 51.1 °F 29.79 in West 6.0 mph 12.0 mph 86 % 0.00 in 25 W/m2
05:34 55.2 °F 51.1 °F 29.79 in West 7.0 mph 14.0 mph 86 % 0.00 in 28 W/m2
05:39 55.4 °F 51.0 °F 29.79 in West 8.0 mph 15.0 mph 85 % 0.00 in 32 W/m2
05:44 55.6 °F 51.1 °F 29.79 in West 9.0 mph 15.0 mph 85 % 0.00 in 40 W/m2
05:49 55.6 °F 51.1 °F 29.78 in West 8.0 mph 13.0 mph 85 % 0.00 in 40 W/m2
05:54 55.8 °F 51.3 °F 29.79 in West 7.0 mph 11.0 mph 85 % 0.00 in 47 W/m2
05:59 55.8 °F 51.0 °F 29.78 in West 7.0 mph 14.0 mph 84 % 0.00 in 46 W/m2
06:04 55.9 °F 50.9 °F 29.79 in West 8.0 mph 15.0 mph 83 % 0.00 in 51 W/m2
06:09 55.9 °F 50.9 °F 29.79 in West 9.0 mph 16.0 mph 83 % 0.00 in 49 W/m2
06:14 55.9 °F 50.5 °F 29.79 in West 9.0 mph 16.0 mph 82 % 0.00 in 51 W/m2
06:19 56.1 °F 50.7 °F 29.79 in West 8.0 mph 15.0 mph 82 % 0.00 in 58 W/m2
06:24 56.1 °F 50.7 °F 29.79 in West 7.0 mph 14.0 mph 82 % 0.00 in 65 W/m2
06:29 56.1 °F 50.7 °F 29.79 in West 8.0 mph 16.0 mph 82 % 0.00 in 69 W/m2
06:34 56.1 °F 50.7 °F 29.79 in West 9.0 mph 16.0 mph 82 % 0.00 in 79 W/m2
06:39 56.3 °F 50.9 °F 29.79 in West 9.0 mph 14.0 mph 82 % 0.00 in 81 W/m2
06:44 56.3 °F 50.9 °F 29.79 in West 9.0 mph 13.0 mph 82 % 0.00 in 77 W/m2
06:49 56.5 °F 51.1 °F 29.79 in West 9.0 mph 14.0 mph 82 % 0.00 in 88 W/m2
06:54 56.5 °F 51.1 °F 29.79 in West 9.0 mph 14.0 mph 82 % 0.00 in 95 W/m2
06:59 56.5 °F 51.1 °F 29.79 in West 9.0 mph 15.0 mph 82 % 0.00 in 113 W/m2
07:04 56.5 °F 51.1 °F 29.80 in West 9.0 mph 15.0 mph 82 % 0.00 in 114 W/m2
07:09 56.7 °F 51.2 °F 29.79 in West 8.0 mph 15.0 mph 82 % 0.00 in 114 W/m2
07:14 56.7 °F 51.2 °F 29.80 in West 9.0 mph 15.0 mph 82 % 0.00 in 116 W/m2
07:19 56.8 °F 51.1 °F 29.80 in West 10.0 mph 16.0 mph 81 % 0.00 in 116 W/m2
07:24 56.8 °F 51.1 °F 29.80 in West 9.0 mph 16.0 mph 81 % 0.00 in 116 W/m2
07:29 57.0 °F 51.2 °F 29.80 in West 8.0 mph 14.0 mph 81 % 0.00 in 128 W/m2
07:32 57.0 °F 51.2 °F 29.80 in West 8.0 mph 14.0 mph 81 % 0.00 in 123 W/m2
07:37 57.2 °F 51.1 °F 29.80 in West 8.0 mph 14.0 mph 80 % 0.00 in 120 W/m2
07:42 57.4 °F 51.3 °F 29.80 in WSW 9.0 mph 16.0 mph 80 % 0.00 in 156 W/m2
07:47 57.4 °F 51.3 °F 29.80 in WSW 9.0 mph 16.0 mph 80 % 0.00 in 132 W/m2
07:52 57.4 °F 51.3 °F 29.80 in WSW 9.0 mph 14.0 mph 80 % 0.00 in 139 W/m2
07:57 57.4 °F 51.3 °F 29.80 in WSW 10.0 mph 16.0 mph 80 % 0.00 in 229 W/m2
08:02 57.6 °F 51.4 °F 29.80 in West 9.0 mph 16.0 mph 80 % 0.00 in 193 W/m2
08:07 57.7 °F 51.6 °F 29.80 in WSW 9.0 mph 18.0 mph 80 % 0.00 in 244 W/m2
08:12 57.7 °F 51.3 °F 29.80 in WSW 11.0 mph 18.0 mph 79 % 0.00 in 195 W/m2
08:17 57.7 °F 51.3 °F 29.80 in WSW 10.0 mph 16.0 mph 79 % 0.00 in 160 W/m2
08:22 57.9 °F 51.8 °F 29.80 in WSW 9.0 mph 16.0 mph 80 % 0.00 in 230 W/m2
08:27 58.1 °F 52.0 °F 29.80 in West 9.0 mph 15.0 mph 80 % 0.00 in 265 W/m2
08:32 58.5 °F 52.0 °F 29.80 in West 9.0 mph 15.0 mph 79 % 0.00 in 320 W/m2
08:37 58.5 °F 51.6 °F 29.80 in West 10.0 mph 19.0 mph 78 % 0.00 in 262 W/m2
08:42 58.6 °F 51.8 °F 29.80 in West 11.0 mph 19.0 mph 78 % 0.00 in 200 W/m2
08:47 58.6 °F 51.4 °F 29.80 in West 10.0 mph 19.0 mph 77 % 0.00 in 171 W/m2
08:52 58.5 °F 51.3 °F 29.80 in West 10.0 mph 15.0 mph 77 % 0.00 in 132 W/m2
08:57 58.5 °F 51.6 °F 29.80 in West 9.0 mph 15.0 mph 78 % 0.00 in 149 W/m2
09:02 58.5 °F 51.6 °F 29.81 in West 8.0 mph 18.0 mph 78 % 0.00 in 120 W/m2
09:07 58.5 °F 51.6 °F 29.81 in West 9.0 mph 18.0 mph 78 % 0.00 in 109 W/m2
09:12 58.3 °F 51.4 °F 29.81 in West 10.0 mph 18.0 mph 78 % 0.00 in 125 W/m2
09:17 58.3 °F 51.4 °F 29.81 in West 10.0 mph 16.0 mph 78 % 0.00 in 127 W/m2
09:22 58.3 °F 51.4 °F 29.81 in West 9.0 mph 15.0 mph 78 % 0.00 in 148 W/m2
09:27 58.3 °F 51.4 °F 29.81 in West 8.0 mph 14.0 mph 78 % 0.00 in 116 W/m2
09:32 58.3 °F 51.4 °F 29.81 in West 8.0 mph 15.0 mph 78 % 0.00 in 121 W/m2
09:38 58.3 °F 51.8 °F 29.81 in WSW 8.0 mph 15.0 mph 79 % 0.00 in 134 W/m2
09:43 58.1 °F 51.6 °F 29.81 in WSW 8.0 mph 15.0 mph 79 % 0.00 in 200 W/m2
09:48 58.3 °F 51.8 °F 29.81 in WSW 9.0 mph 15.0 mph 79 % 0.00 in 271 W/m2
09:53 58.5 °F 52.0 °F 29.81 in WSW 8.0 mph 15.0 mph 79 % 0.00 in 248 W/m2
09:56 58.6 °F 52.1 °F 29.81 in WSW 8.0 mph 15.0 mph 79 % 0.00 in 265 W/m2
10:01 58.8 °F 52.0 °F 29.81 in WSW 10.0 mph 19.0 mph 78 % 0.00 in 269 W/m2
10:06 59.0 °F 52.1 °F 29.81 in West 11.0 mph 19.0 mph 78 % 0.00 in 260 W/m2
10:11 59.2 °F 52.7 °F 29.81 in West 10.0 mph 18.0 mph 79 % 0.00 in 315 W/m2
10:16 59.2 °F 52.7 °F 29.81 in WSW 10.0 mph 18.0 mph 79 % 0.00 in 397 W/m2
10:21 59.2 °F 52.3 °F 29.81 in WSW 11.0 mph 18.0 mph 78 % 0.00 in 434 W/m2
10:22 59.4 °F 52.8 °F 29.81 in WSW 11.0 mph 18.0 mph 79 % 0.00 in 434 W/m2
10:27 59.7 °F 53.2 °F 29.81 in WSW 10.0 mph 15.0 mph 79 % 0.00 in 436 W/m2
10:32 60.3 °F 53.0 °F 29.81 in West 9.0 mph 16.0 mph 77 % 0.00 in 455 W/m2
10:37 60.6 °F 52.6 °F 29.81 in West 10.0 mph 16.0 mph 75 % 0.00 in 392 W/m2
10:42 61.0 °F 52.6 °F 29.81 in West 12.0 mph 23.0 mph 74 % 0.00 in 334 W/m2
10:47 61.0 °F 53.0 °F 29.81 in West 12.0 mph 23.0 mph 75 % 0.00 in 295 W/m2
10:52 61.2 °F 53.2 °F 29.81 in West 11.0 mph 19.0 mph 75 % 0.00 in 327 W/m2
10:57 61.2 °F 52.4 °F 29.81 in West 11.0 mph 18.0 mph 73 % 0.00 in 334 W/m2
11:02 61.2 °F 52.4 °F 29.81 in West 11.0 mph 18.0 mph 73 % 0.00 in 350 W/m2
11:07 61.2 °F 52.8 °F 29.81 in West 11.0 mph 18.0 mph 74 % 0.00 in 336 W/m2
11:12 61.5 °F 52.8 °F 29.81 in West 11.0 mph 20.0 mph 73 % 0.00 in 313 W/m2
11:17 61.9 °F 52.8 °F 29.81 in West 12.0 mph 20.0 mph 72 % 0.00 in 253 W/m2
11:22 62.1 °F 52.9 °F 29.81 in West 12.0 mph 20.0 mph 72 % 0.00 in 424 W/m2
11:27 62.2 °F 52.7 °F 29.81 in West 12.0 mph 20.0 mph 71 % 0.00 in 327 W/m2
11:32 62.8 °F 53.2 °F 29.81 in West 12.0 mph 19.0 mph 71 % 0.00 in 327 W/m2
11:37 63.3 °F 53.4 °F 29.81 in West 11.0 mph 20.0 mph 70 % 0.00 in 327 W/m2
11:42 63.9 °F 53.1 °F 29.81 in West 12.0 mph 20.0 mph 68 % 0.00 in 555 W/m2
11:47 64.2 °F 53.0 °F 29.81 in West 12.0 mph 20.0 mph 67 % 0.00 in 566 W/m2
11:52 64.6 °F 53.4 °F 29.81 in WSW 11.0 mph 19.0 mph 67 % 0.00 in 714 W/m2
11:57 64.4 °F 52.8 °F 29.81 in West 11.0 mph 20.0 mph 66 % 0.00 in 693 W/m2
12:02 64.6 °F 53.0 °F 29.81 in West 12.0 mph 21.0 mph 66 % 0.00 in 515 W/m2
12:07 64.2 °F 53.4 °F 29.81 in West 13.0 mph 21.0 mph 68 % 0.00 in 564 W/m2
12:12 64.6 °F 53.8 °F 29.81 in West 11.0 mph 19.0 mph 68 % 0.00 in 519 W/m2
12:18 64.4 °F 53.2 °F 29.81 in WSW 11.0 mph 21.0 mph 67 % 0.00 in 431 W/m2
12:23 64.4 °F 53.6 °F 29.81 in WSW 11.0 mph 21.0 mph 68 % 0.00 in 603 W/m2
12:28 64.2 °F 53.4 °F 29.81 in WSW 11.0 mph 19.0 mph 68 % 0.00 in 373 W/m2
12:33 64.2 °F 54.2 °F 29.81 in WSW 10.0 mph 15.0 mph 70 % 0.00 in 656 W/m2
12:38 64.4 °F 53.6 °F 29.81 in West 11.0 mph 19.0 mph 68 % 0.00 in 441 W/m2
12:43 64.9 °F 54.1 °F 29.81 in West 12.0 mph 19.0 mph 68 % 0.00 in 301 W/m2
12:48 65.3 °F 54.5 °F 29.81 in West 12.0 mph 21.0 mph 68 % 0.00 in 1129 W/m2
12:53 65.5 °F 54.2 °F 29.81 in West 12.0 mph 21.0 mph 67 % 0.00 in 1109 W/m2
12:58 65.7 °F 54.4 °F 29.81 in West 12.0 mph 20.0 mph 67 % 0.00 in 1081 W/m2
13:03 65.7 °F 54.4 °F 29.81 in West 12.0 mph 21.0 mph 67 % 0.00 in 364 W/m2
13:08 66.0 °F 55.2 °F 29.80 in WNW 11.0 mph 21.0 mph 68 % 0.00 in 838 W/m2
13:13 65.8 °F 55.4 °F 29.81 in WNW 12.0 mph 23.0 mph 69 % 0.00 in 462 W/m2
13:18 65.3 °F 56.0 °F 29.81 in WNW 12.0 mph 23.0 mph 72 % 0.00 in 517 W/m2
13:23 64.6 °F 56.1 °F 29.81 in WNW 10.0 mph 19.0 mph 74 % 0.00 in 926 W/m2
13:28 64.8 °F 55.1 °F 29.81 in West 10.0 mph 19.0 mph 71 % 0.00 in 406 W/m2
13:33 65.1 °F 55.1 °F 29.81 in West 10.0 mph 19.0 mph 70 % 0.00 in 396 W/m2
13:38 64.9 °F 55.3 °F 29.81 in West 10.0 mph 16.0 mph 71 % 0.00 in 459 W/m2
13:43 64.9 °F 55.3 °F 29.81 in West 10.0 mph 16.0 mph 71 % 0.00 in 436 W/m2
13:48 65.1 °F 55.1 °F 29.80 in West 10.0 mph 15.0 mph 70 % 0.00 in 661 W/m2
13:53 65.7 °F 55.2 °F 29.80 in West 11.0 mph 19.0 mph 69 % 0.00 in 661 W/m2
13:58 66.2 °F 55.3 °F 29.81 in West 10.0 mph 19.0 mph 68 % 0.00 in 350 W/m2
14:03 66.0 °F 54.3 °F 29.80 in WNW 10.0 mph 20.0 mph 66 % 0.00 in 302 W/m2
14:08 66.0 °F 54.7 °F 29.80 in WNW 11.0 mph 20.0 mph 67 % 0.00 in 281 W/m2
14:13 66.0 °F 54.7 °F 29.81 in WNW 10.0 mph 18.0 mph 67 % 0.00 in 244 W/m2
14:18 65.7 °F 54.4 °F 29.80 in WNW 11.0 mph 20.0 mph 67 % 0.00 in 1099 W/m2
14:23 65.8 °F 54.6 °F 29.80 in West 11.0 mph 20.0 mph 67 % 0.00 in 1099 W/m2
14:28 66.2 °F 54.1 °F 29.80 in West 11.0 mph 19.0 mph 65 % 0.00 in 1204 W/m2
14:33 66.6 °F 54.8 °F 29.81 in West 12.0 mph 19.0 mph 66 % 0.00 in 403 W/m2
14:38 66.4 °F 54.7 °F 29.81 in WNW 12.0 mph 22.0 mph 66 % 0.00 in 485 W/m2
14:43 66.0 °F 53.9 °F 29.81 in WNW 12.0 mph 22.0 mph 65 % 0.00 in 485 W/m2
14:48 66.4 °F 53.8 °F 29.81 in WNW 13.0 mph 21.0 mph 64 % 0.00 in 1056 W/m2
14:53 66.0 °F 53.5 °F 29.81 in West 13.0 mph 20.0 mph 64 % 0.00 in 399 W/m2
14:58 66.0 °F 53.9 °F 29.81 in West 12.0 mph 20.0 mph 65 % 0.00 in 766 W/m2
15:03 66.9 °F 54.3 °F 29.81 in WNW 10.0 mph 18.0 mph 64 % 0.00 in 918 W/m2
15:08 67.1 °F 54.1 °F 29.81 in West 10.0 mph 18.0 mph 63 % 0.00 in 304 W/m2
15:13 66.4 °F 53.4 °F 29.81 in West 11.0 mph 19.0 mph 63 % 0.00 in 262 W/m2
15:18 65.8 °F 52.9 °F 29.81 in WNW 12.0 mph 20.0 mph 63 % 0.00 in 445 W/m2
15:23 65.7 °F 53.6 °F 29.81 in WNW 12.0 mph 20.0 mph 65 % 0.00 in 573 W/m2
15:28 65.7 °F 52.7 °F 29.82 in WNW 12.0 mph 19.0 mph 63 % 0.00 in 274 W/m2
15:34 65.3 °F 52.8 °F 29.82 in WNW 11.0 mph 19.0 mph 64 % 0.00 in 457 W/m2
15:39 65.1 °F 52.2 °F 29.82 in WNW 10.0 mph 20.0 mph 63 % 0.00 in 555 W/m2
15:44 65.7 °F 52.7 °F 29.82 in WNW 10.0 mph 20.0 mph 63 % 0.00 in 657 W/m2
15:49 65.7 °F 52.3 °F 29.82 in West 11.0 mph 19.0 mph 62 % 0.00 in 341 W/m2
15:54 65.5 °F 51.7 °F 29.82 in West 10.0 mph 19.0 mph 61 % 0.00 in 250 W/m2
15:59 64.9 °F 52.0 °F 29.82 in WNW 10.0 mph 19.0 mph 63 % 0.00 in 394 W/m2
16:04 64.9 °F 52.0 °F 29.82 in WNW 11.0 mph 21.0 mph 63 % 0.00 in 216 W/m2
16:09 64.2 °F 51.4 °F 29.83 in WNW 12.0 mph 21.0 mph 63 % 0.00 in 153 W/m2
16:14 63.7 °F 51.3 °F 29.82 in WNW 11.0 mph 19.0 mph 64 % 0.00 in 290 W/m2
16:19 63.1 °F 50.8 °F 29.82 in WNW 9.0 mph 19.0 mph 64 % 0.00 in 250 W/m2
16:24 63.1 °F 50.8 °F 29.83 in WNW 9.0 mph 16.0 mph 64 % 0.00 in 178 W/m2
16:29 63.1 °F 51.2 °F 29.83 in WNW 8.0 mph 16.0 mph 65 % 0.00 in 202 W/m2
16:34 63.1 °F 51.2 °F 29.83 in WNW 8.0 mph 19.0 mph 65 % 0.00 in 155 W/m2
16:39 63.0 °F 51.0 °F 29.83 in WNW 10.0 mph 20.0 mph 65 % 0.00 in 209 W/m2
16:44 62.8 °F 50.4 °F 29.83 in WNW 11.0 mph 20.0 mph 64 % 0.00 in 160 W/m2
16:49 62.8 °F 50.8 °F 29.83 in WNW 10.0 mph 19.0 mph 65 % 0.00 in 160 W/m2
16:54 62.6 °F 50.2 °F 29.83 in WNW 9.0 mph 16.0 mph 64 % 0.00 in 260 W/m2
16:59 62.8 °F 50.4 °F 29.83 in WNW 10.0 mph 20.0 mph 64 % 0.00 in 302 W/m2
17:04 63.0 °F 50.6 °F 29.83 in WNW 10.0 mph 21.0 mph 64 % 0.00 in 234 W/m2
17:09 63.1 °F 50.3 °F 29.83 in WNW 10.0 mph 21.0 mph 63 % 0.00 in 329 W/m2
17:14 63.1 °F 49.5 °F 29.83 in WNW 12.0 mph 21.0 mph 61 % 0.00 in 248 W/m2
17:19 63.3 °F 50.1 °F 29.83 in WNW 11.0 mph 21.0 mph 62 % 0.00 in 236 W/m2
17:24 63.7 °F 50.0 °F 29.83 in WNW 8.0 mph 14.0 mph 61 % 0.00 in 255 W/m2
17:27 63.7 °F 50.0 °F 29.83 in WNW 9.0 mph 18.0 mph 61 % 0.00 in 283 W/m2
17:32 64.0 °F 49.9 °F 29.83 in WNW 11.0 mph 23.0 mph 60 % 0.00 in 341 W/m2
17:37 64.4 °F 49.3 °F 29.83 in WNW 14.0 mph 24.0 mph 58 % 0.00 in 322 W/m2
17:42 64.6 °F 49.0 °F 29.83 in WNW 13.0 mph 24.0 mph 57 % 0.00 in 679 W/m2
17:47 64.9 °F 48.4 °F 29.83 in WNW 12.0 mph 25.0 mph 55 % 0.00 in 601 W/m2
17:52 64.8 °F 48.2 °F 29.83 in WNW 13.0 mph 25.0 mph 55 % 0.00 in 202 W/m2
17:57 64.4 °F 47.9 °F 29.83 in WNW 12.0 mph 25.0 mph 55 % 0.00 in 552 W/m2
18:02 64.4 °F 47.4 °F 29.83 in WNW 13.0 mph 25.0 mph 54 % 0.00 in 515 W/m2
18:07 64.4 °F 47.4 °F 29.83 in WNW 12.0 mph 24.0 mph 54 % 0.00 in 483 W/m2
18:12 64.6 °F 47.1 °F 29.84 in WNW 11.0 mph 24.0 mph 53 % 0.00 in 450 W/m2
18:18 64.8 °F 46.7 °F 29.84 in WNW 10.0 mph 23.0 mph 52 % 0.00 in 420 W/m2
18:23 64.8 °F 46.7 °F 29.84 in WNW 11.0 mph 24.0 mph 52 % 0.00 in 429 W/m2
18:28 64.8 °F 46.7 °F 29.84 in WNW 11.0 mph 24.0 mph 52 % 0.00 in 425 W/m2
18:33 64.6 °F 47.6 °F 29.85 in WNW 11.0 mph 22.0 mph 54 % 0.00 in 429 W/m2
18:38 64.4 °F 46.9 °F 29.85 in NW 10.0 mph 19.0 mph 53 % 0.00 in 396 W/m2
18:43 64.0 °F 46.1 °F 29.85 in WNW 11.0 mph 19.0 mph 52 % 0.00 in 366 W/m2
18:48 63.7 °F 45.7 °F 29.85 in WNW 10.0 mph 19.0 mph 52 % 0.00 in 338 W/m2
18:53 63.3 °F 45.9 °F 29.85 in WNW 9.0 mph 18.0 mph 53 % 0.00 in 338 W/m2
18:58 63.0 °F 45.6 °F 29.85 in NW 9.0 mph 18.0 mph 53 % 0.00 in 206 W/m2
19:03 62.8 °F 45.4 °F 29.86 in NW 10.0 mph 23.0 mph 53 % 0.00 in 100 W/m2
19:08 62.2 °F 45.4 °F 29.86 in NW 10.0 mph 23.0 mph 54 % 0.00 in 49 W/m2
19:13 61.5 °F 45.7 °F 29.86 in WNW 8.0 mph 14.0 mph 56 % 0.00 in 72 W/m2
19:18 61.0 °F 45.6 °F 29.86 in WNW 10.0 mph 19.0 mph 57 % 0.00 in 62 W/m2
19:23 60.4 °F 46.0 °F 29.86 in WNW 9.0 mph 19.0 mph 59 % 0.00 in 63 W/m2
19:28 60.3 °F 45.9 °F 29.86 in NW 8.0 mph 19.0 mph 59 % 0.00 in 58 W/m2
19:33 60.1 °F 46.1 °F 29.86 in WNW 8.0 mph 19.0 mph 60 % 0.00 in 83 W/m2
19:38 60.1 °F 46.1 °F 29.86 in WNW 8.0 mph 15.0 mph 60 % 0.00 in 128 W/m2
19:44 60.1 °F 46.6 °F 29.87 in WNW 8.0 mph 14.0 mph 61 % 0.00 in 49 W/m2
19:49 59.9 °F 46.0 °F 29.87 in WNW 9.0 mph 15.0 mph 60 % 0.00 in 35 W/m2
19:54 59.5 °F 45.6 °F 29.87 in WNW 9.0 mph 18.0 mph 60 % 0.00 in 65 W/m2
19:59 59.4 °F 45.9 °F 29.87 in WNW 8.0 mph 18.0 mph 61 % 0.00 in 28 W/m2
20:04 59.2 °F 45.7 °F 29.87 in WNW 7.0 mph 14.0 mph 61 % 0.00 in 35 W/m2
20:09 59.2 °F 46.2 °F 29.87 in WNW 7.0 mph 12.0 mph 62 % 0.00 in 35 W/m2
20:14 58.8 °F 45.4 °F 29.87 in WNW 7.0 mph 12.0 mph 61 % 0.00 in 40 W/m2
20:19 58.8 °F 45.4 °F 29.87 in WNW 9.0 mph 18.0 mph 61 % 0.00 in 33 W/m2
20:24 58.6 °F 45.7 °F 29.87 in WNW 11.0 mph 19.0 mph 62 % 0.00 in 30 W/m2
20:29 58.5 °F 45.5 °F 29.87 in WNW 10.0 mph 19.0 mph 62 % 0.00 in 32 W/m2
20:34 58.3 °F 45.7 °F 29.87 in WNW 9.0 mph 19.0 mph 63 % 0.00 in 35 W/m2
20:39 58.3 °F 46.2 °F 29.87 in WNW 9.0 mph 19.0 mph 64 % 0.00 in 35 W/m2
20:44 58.1 °F 46.0 °F 29.87 in WNW 8.0 mph 13.0 mph 64 % 0.00 in 28 W/m2
20:49 57.9 °F 46.2 °F 29.87 in WNW 7.0 mph 13.0 mph 65 % 0.00 in 33 W/m2
20:54 57.9 °F 46.6 °F 29.87 in WNW 7.0 mph 14.0 mph 66 % 0.00 in 32 W/m2
20:59 57.7 °F 46.5 °F 29.87 in WNW 8.0 mph 14.0 mph 66 % 0.00 in 32 W/m2
21:04 57.7 °F 46.5 °F 29.88 in WNW 8.0 mph 14.0 mph 66 % 0.00 in 26 W/m2
21:09 57.7 °F 46.9 °F 29.88 in WNW 7.0 mph 13.0 mph 67 % 0.00 in 23 W/m2
21:14 57.7 °F 46.9 °F 29.88 in WNW 7.0 mph 13.0 mph 67 % 0.00 in 21 W/m2
21:19 57.7 °F 47.2 °F 29.88 in WNW 6.0 mph 11.0 mph 68 % 0.00 in 16 W/m2
21:24 57.6 °F 47.1 °F 29.89 in WNW 6.0 mph 13.0 mph 68 % 0.00 in 9 W/m2
21:29 57.6 °F 47.1 °F 29.89 in WNW 7.0 mph 13.0 mph 68 % 0.00 in 7 W/m2
21:34 57.4 °F 47.3 °F 29.89 in WNW 6.0 mph 11.0 mph 69 % 0.00 in 5 W/m2
21:39 57.4 °F 47.3 °F 29.89 in WNW 6.0 mph 11.0 mph 69 % 0.00 in 0 W/m2
21:44 57.2 °F 47.5 °F 29.89 in WNW 6.0 mph 10.0 mph 70 % 0.00 in 0 W/m2
21:49 57.0 °F 47.3 °F 29.89 in West 7.0 mph 13.0 mph 70 % 0.00 in 0 W/m2
21:54 56.8 °F 47.2 °F 29.90 in West 8.0 mph 15.0 mph 70 % 0.00 in 0 W/m2
21:59 56.8 °F 47.5 °F 29.90 in WNW 6.0 mph 15.0 mph 71 % 0.00 in 0 W/m2
22:04 56.7 °F 47.7 °F 29.90 in WNW 5.0 mph 9.0 mph 72 % 0.00 in 0 W/m2
22:09 56.7 °F 47.7 °F 29.90 in WNW 6.0 mph 11.0 mph 72 % 0.00 in 0 W/m2
22:14 56.5 °F 47.6 °F 29.90 in WNW 7.0 mph 11.0 mph 72 % 0.00 in 0 W/m2
22:19 56.1 °F 47.6 °F 29.90 in WNW 5.0 mph 10.0 mph 73 % 0.00 in 0 W/m2
22:24 55.9 °F 47.4 °F 29.90 in WNW 5.0 mph 9.0 mph 73 % 0.00 in 0 W/m2
22:25 55.9 °F 47.4 °F 29.90 in WNW 5.0 mph 8.0 mph 73 % 0.00 in 0 W/m2
22:30 55.8 °F 47.6 °F 29.90 in WNW 5.0 mph 9.0 mph 74 % 0.00 in 0 W/m2
22:35 55.4 °F 47.6 °F 29.90 in WNW 6.0 mph 10.0 mph 75 % 0.00 in 0 W/m2
22:40 55.0 °F 47.6 °F 29.90 in WNW 6.0 mph 12.0 mph 76 % 0.00 in 0 W/m2
22:45 54.9 °F 47.8 °F 29.91 in WNW 6.0 mph 12.0 mph 77 % 0.00 in 0 W/m2
22:50 54.7 °F 47.6 °F 29.91 in WNW 5.0 mph 9.0 mph 77 % 0.00 in 0 W/m2
22:55 54.3 °F 47.6 °F 29.91 in WNW 5.0 mph 9.0 mph 78 % 0.00 in 0 W/m2
23:00 54.3 °F 47.6 °F 29.91 in WNW 6.0 mph 10.0 mph 78 % 0.00 in 0 W/m2
23:05 54.1 °F 47.8 °F 29.91 in WNW 7.0 mph 11.0 mph 79 % 0.00 in 0 W/m2
23:10 54.0 °F 47.6 °F 29.91 in WNW 6.0 mph 11.0 mph 79 % 0.00 in 0 W/m2
23:15 53.8 °F 47.4 °F 29.90 in WNW 6.0 mph 11.0 mph 79 % 0.00 in 0 W/m2
23:20 53.6 °F 47.2 °F 29.91 in WNW 6.0 mph 10.0 mph 79 % 0.00 in 0 W/m2
23:25 53.4 °F 47.4 °F 29.91 in WNW 4.0 mph 10.0 mph 80 % 0.00 in 0 W/m2
23:30 53.2 °F 47.2 °F 29.91 in NW 3.0 mph 8.0 mph 80 % 0.00 in 0 W/m2
23:35 53.1 °F 47.1 °F 29.91 in WNW 4.0 mph 7.0 mph 80 % 0.00 in 0 W/m2
23:40 52.9 °F 46.9 °F 29.91 in WNW 5.0 mph 9.0 mph 80 % 0.00 in 0 W/m2
23:45 52.9 °F 46.9 °F 29.91 in WNW 5.0 mph 9.0 mph 80 % 0.00 in 0 W/m2
23:50 52.7 °F 46.7 °F 29.91 in WNW 6.0 mph 12.0 mph 80 % 0.00 in 0 W/m2
23:55 52.5 °F 46.5 °F 29.91 in WNW 6.0 mph 12.0 mph 80 % 0.00 in 0 W/m2
Delerius-Weather
Compliments of Weather Underground - 2.25 mb

Data updates at regular intervals.